Regional Weather Roundup
Issued by NWS

Home | Current Version | Previous Version | Text Only | Print | Product List | Glossary Off
Versions: 1 2 3 4 5 6 7 8 9 10 11 12 13 14 15 16 17 18 19 20 21 22 23 24 25 26 27 28 29 30 31 32 33 34 35 36 37 38 39 40 41 42 43 44 45 46 47 48 49 50

000
ASUS43 KIND 021509
RWRIN

WEATHER ROUNDUP FOR INDIANA
NATIONAL WEATHER SERVICE INDIANAPOLIS IN
1100 AM EDT WED SEP 02 2015

NOTE: "FAIR" INDICATES FEW OR NO CLOUDS BELOW 12,000 FEET WITH NO
SIGNIFICANT WEATHER AND/OR OBSTRUCTIONS TO VISIBILITY.

* - STATION DOES NOT REPORT WEATHER SUCH AS PRECIPITATION OR FOG.

+ - STATION NOT QUALITY CONTROLLED BY THE NATIONAL WEATHER SERVICE.
    USE DATA WITH CAUTION...ESPECIALLY DEWPOINT AND RELATIVE
    HUMIDITY OBSERVATIONS.

INZ001>003-010>013-019-020-021600-
NORTHWEST INDIANA

CITY           SKY/WX    TMP DP  RH WIND       PRES   REMARKS
GARY /AIRPORT/ SUNNY     81  68  65 W7        30.08F
KNOX *+        SUNNY     79  70  73 SW6       30.10R
LA PORTE +     SUNNY     81  74  81 SW6       30.11R
MICHIGAN CITY+ SUNNY     81  68  65 W6        30.09S
MONTICELLO +   SUNNY     81  73  78 SW5       30.10S
RENSSELAER +   SUNNY     81  73  78 W7        30.10F
VALPARAISO     SUNNY     81  72  74 W7        30.10S

$$

LMZ046-743>745-021600-
SOUTHERN LAKE MICHIGAN

STATION/POSITION TIME  TEMP    WIND        PRES    WAVE
                       AIR SEA DIR/SP/G            HT
                 (UTC) (F)     (DEG/KT/KT) (MB)    (FT)
BURNS HARBOR     1400   76     230/  8/ 10 1019.0S
MICHIGAN CITY    1400   75     200/  8/  9   N/A
5NW MICH CITY    1500   75 72  240/  8/  8   N/A     1

$$

INZ004-005-014>016-021>024-021600-
NORTH CENTRAL INDIANA

CITY           SKY/WX    TMP DP  RH WIND       PRES   REMARKS
ELKHART        SUNNY     81  72  74 W8        30.10S
GOSHEN         SUNNY     80  71  74 SW6       30.09S
LOGANSPORT +   SUNNY     81  66  61 W6        30.12S
PERU/GRISSOM   MOSUNNY   81  71  72 W8        30.11S
ROCHESTER +    SUNNY     82  72  69 W7        30.11F
SOUTH BEND     SUNNY     79  70  74 SW7       30.10R
WARSAW +       SUNNY     79  70  73 SW5       30.11S

$$

INZ006>009-017-018-025>027-021600-
NORTHEAST INDIANA

CITY           SKY/WX    TMP DP  RH WIND       PRES   REMARKS
ANGOLA *+      SUNNY     82  72  69 W9        30.09S
AUBURN +       SUNNY     79  70  73 W6        30.10S
FORT WAYNE     MOSUNNY   80  71  74 W9        30.11S
HUNTINGTON +   SUNNY     80  67  64 W7        30.11S

$$

INZ028-029-035-036-043>045-051>053-021600-
WEST CENTRAL INDIANA

CITY           SKY/WX    TMP DP  RH WIND       PRES   REMARKS
CRAWFORDSVL +  SUNNY     79  67  67 W5        30.13S
GREENCASTLE +  SUNNY     81  66  61 W5        30.14S
LAFAYETTE      SUNNY     80  70  71 VRB5      30.11S
TERRE HAUTE    SUNNY     83  70  64 W6        30.13S

$$

INZ030>032-037>040-046>048-054>057-064-065-021600-
CENTRAL INDIANA

CITY           SKY/WX    TMP DP  RH WIND       PRES   REMARKS
ANDERSON       SUNNY     81  66  61 SW6       30.15S
COLUMBUS       SUNNY     81  68  65 CALM      30.14F
FISHERS *+     SUNNY     81  73  78 W7        30.14S
FRANKFORT +    SUNNY     82  73  72 SW7       30.14S
GREENWOOD *+   SUNNY     81  66  61 SW3       30.15S
INDIANAPOLIS   MOSUNNY   82  68  62 W7        30.13S
-EAGLE CREEK   SUNNY     82  69  64 VRB6      30.13S
KOKOMO *+      SUNNY     82  70  65 NW12      30.12S
MARION +       PTSUNNY   78  63  58 W7        30.14S
MT COMFORT *+  SUNNY     82  66  57 W6        30.14S
SHELBYVILLE    SUNNY     82  70  66 W6        30.14S
ZIONSVILLE +   SUNNY     83  70  65 W5        30.14S

$$

INZ033-034-041-042-049-050-058-059-021600-
EAST CENTRAL INDIANA

CITY           SKY/WX    TMP DP  RH WIND       PRES   REMARKS
MUNCIE         MOSUNNY   77  70  79 W8        30.14R

$$

INZ060-061-067>069-081>083-085>088-021600-
SOUTHWEST INDIANA

CITY           SKY/WX    TMP DP  RH WIND       PRES   REMARKS
EVANSVILLE     SUNNY     84  69  60 CALM      30.15S
HUNTINGBURG *+ SUNNY     82  70  65 W5        30.16R
WASHINGTON +   SUNNY     82  66  58 W5        30.14S

$$

INZ062-063-066-070>080-084-089>092-021600-
SOUTH CENTRAL AND SOUTHEAST INDIANA

CITY           SKY/WX    TMP DP  RH WIND       PRES   REMARKS
BLOOMINGTON    SUNNY     81  70  69 W5        30.15F
NORTH VERNON + SUNNY     81  70  69 CALM      30.16S
SEYMOUR +      SUNNY     84  70  61 W3        30.15R

$$



USA.gov is the U.S. government's official web portal to all federal, state and local government web resources and services.